| time (UTC) | temp F | wind direction | speed MPH | gust MPH | rain 1hr in | rain 24hr in | rain mn in | humidity % | barometer mb |
| 20260502195817 | 55 | 0.0 | 0.0 | 0.00 | 0.03 | 0.03 | 96 | 1014.9 | |
| 20260502194817 | 55 | 0.0 | 0.0 | 0.00 | 0.03 | 0.03 | 96 | 1014.9 | |
| 20260502193836 | 56 | 0.0 | 0.0 | 0.00 | 0.03 | 0.03 | 96 | 1014.9 | |
| 20260502192817 | 57 | 0.0 | 0.0 | 0.00 | 0.03 | 0.03 | 95 | 1014.9 | |
| 20260502191817 | 58 | 0.0 | 0.0 | 0.00 | 0.03 | 0.03 | 95 | 1014.9 | |
| 20260502190820 | 58 | 0.0 | 0.0 | 0.00 | 0.03 | 0.03 | 96 | 1014.8 | |
| 20260502185817 | 59 | 0.0 | 0.0 | 0.00 | 0.03 | 0.03 | 95 | 1014.8 | |
| 20260502184820 | 59 | 0.0 | 0.0 | 0.00 | 0.03 | 0.03 | 95 | 1014.8 | |
| 20260502183819 | 60 | 0.0 | 0.0 | 0.00 | 0.03 | 0.03 | 95 | 1014.8 | |
| 20260502182816 | 61 | 0.0 | 0.0 | 0.00 | 0.03 | 0.03 | 94 | 1014.7 | |
| 20260502181816 | 61 | 0.0 | 0.0 | 0.00 | 0.03 | 0.03 | 94 | 1014.7 | |
| 20260502180901 | 61 | 0.0 | 0.0 | 0.00 | 0.03 | 0.03 | 94 | 1014.5 | |
| 20260502163816 | 64 | 315 | 2.0 | 3.0 | 0.03 | 0.03 | 0.03 | 86 | 1014.9 |
| 20260502162816 | 66 | 315 | 3.0 | 4.0 | 0.01 | 0.01 | 0.01 | 73 | 1015.1 |
| 20260502161816 | 68 | 45 | 5.0 | 7.0 | 0.00 | 0.00 | 0.00 | 66 | 1015.3 |
| 20260502160816 | 69 | 68 | 3.0 | 4.0 | 0.00 | 0.00 | 0.00 | 63 | 1015.4 |
| 20260502151816 | 74 | 135 | 3.0 | 7.0 | 0.00 | 0.00 | 0.00 | 46 | 1015.6 |
| 20260502150816 | 75 | 90 | 3.0 | 4.0 | 0.00 | 0.00 | 0.00 | 51 | 1015.5 |
| 20260502123816 | 74 | 158 | 5.0 | 8.0 | 0.00 | 0.00 | 0.00 | 44 | 1017.1 |
| 20260502122819 | 74 | 158 | 8.0 | 12.0 | 0.00 | 0.00 | 0.00 | 48 | 1017.2 |
| 20260502121816 | 74 | 225 | 8.0 | 18.0 | 0.00 | 0.00 | 0.00 | 48 | 1017.3 |
| 20260502120836 | 74 | 90 | 5.0 | 8.0 | 0.00 | 0.00 | 0.00 | 47 | 1017.3 |
| 20260502115819 | 73 | 113 | 8.0 | 10.0 | 0.00 | 0.00 | 0.00 | 49 | 1017.6 |
| 20260502114816 | 74 | 293 | 3.0 | 6.0 | 0.00 | 0.00 | 0.00 | 47 | 1017.6 |
| 20260502113819 | 75 | 180 | 5.0 | 10.0 | 0.00 | 0.00 | 0.00 | 47 | 1017.8 |
| 20260502112816 | 74 | 203 | 8.0 | 10.0 | 0.00 | 0.00 | 0.00 | 46 | 1018.2 |
| 20260502111816 | 73 | 203 | 7.0 | 12.0 | 0.00 | 0.00 | 0.00 | 48 | 1018.2 |
| 20260502110846 | 73 | 180 | 7.0 | 10.0 | 0.00 | 0.00 | 0.00 | 48 | 1018.3 |
| 20260502105824 | 72 | 203 | 8.0 | 10.0 | 0.00 | 0.00 | 0.00 | 48 | 1018.4 |
| 20260502104816 | 73 | 225 | 3.0 | 5.0 | 0.00 | 0.00 | 0.00 | 46 | 1018.6 |
| 20260502103816 | 73 | 158 | 5.0 | 7.0 | 0.00 | 0.00 | 0.00 | 50 | 1018.8 |
| 20260502102816 | 72 | 225 | 9.0 | 11.0 | 0.00 | 0.00 | 0.00 | 48 | 1018.9 |
| 20260502101816 | 70 | 225 | 4.0 | 7.0 | 0.00 | 0.00 | 0.00 | 52 | 1019.0 |
| 20260502100859 | 70 | 180 | 7.0 | 12.0 | 0.00 | 0.00 | 0.00 | 49 | 1019.1 |
| 20260502090836 | 70 | 180 | 3.0 | 5.0 | 0.00 | 0.00 | 0.00 | 50 | 1019.4 |
| 20260502070816 | 62 | 135 | 7.0 | 11.0 | 0.00 | 0.00 | 0.00 | 46 | 1020.4 |
| 20260502065819 | 62 | 180 | 6.0 | 10.0 | 0.00 | 0.00 | 0.00 | 49 | 1020.5 |
| 20260502064815 | 62 | 203 | 3.0 | 5.0 | 0.00 | 0.00 | 0.00 | 50 | 1020.3 |
| 20260502063816 | 60 | 158 | 3.0 | 5.0 | 0.00 | 0.00 | 0.00 | 53 | 1020.6 |
| 20260502062816 | 59 | 135 | 4.0 | 5.0 | 0.00 | 0.00 | 0.00 | 52 | 1020.5 |
| 20260502061816 | 59 | 180 | 3.0 | 4.0 | 0.00 | 0.00 | 0.00 | 52 | 1020.6 |
| 20260502060819 | 58 | 158 | 4.0 | 6.0 | 0.00 | 0.00 | 0.00 | 52 | 1020.6 |
| 20260502055816 | 57 | 158 | 4.0 | 6.0 | 0.00 | 0.00 | 0.00 | 53 | 1020.7 |
| 20260502054819 | 56 | 180 | 4.0 | 7.0 | 0.00 | 0.00 | 0.00 | 55 | 1020.7 |
| 20260502053816 | 56 | 203 | 5.0 | 7.0 | 0.00 | 0.00 | 0.00 | 55 | 1020.5 |
| 20260502052818 | 55 | 158 | 3.0 | 5.0 | 0.00 | 0.00 | 0.00 | 55 | 1020.6 |
| 20260502051818 | 54 | 135 | 3.0 | 6.0 | 0.00 | 0.00 | 0.00 | 58 | 1020.5 |
| 20260502050838 | 53 | 203 | 3.0 | 5.0 | 0.00 | 0.00 | 0.00 | 59 | 1020.5 |
| 20260502045816 | 53 | 225 | 3.0 | 4.0 | 0.00 | 0.00 | 0.00 | 60 | 1020.5 |
| 20260502044815 | 51 | 180 | 2.0 | 4.0 | 0.00 | 0.00 | 0.00 | 62 | 1020.4 |
| 20260502043819 | 51 | 0.0 | 1.0 | 0.00 | 0.00 | 0.00 | 61 | 1020.2 | |
| 20260502042815 | 51 | 180 | 1.0 | 2.0 | 0.00 | 0.00 | 0.00 | 61 | 1020.2 |
| 20260502041816 | 50 | 203 | 1.0 | 3.0 | 0.00 | 0.00 | 0.00 | 63 | 1020.2 |
| 20260502040815 | 51 | 203 | 3.0 | 4.0 | 0.00 | 0.00 | 0.00 | 61 | 1020.3 |
| 20260502035817 | 51 | 225 | 2.0 | 3.0 | 0.00 | 0.00 | 0.00 | 62 | 1020.3 |
| 20260502034822 | 51 | 225 | 3.0 | 4.0 | 0.00 | 0.00 | 0.00 | 61 | 1020.5 |
| 20260502033820 | 51 | 203 | 3.0 | 6.0 | 0.00 | 0.00 | 0.00 | 60 | 1020.6 |
| 20260502032818 | 49 | 203 | 2.0 | 3.0 | 0.00 | 0.00 | 0.00 | 65 | 1020.6 |
| 20260502031837 | 51 | 225 | 4.0 | 6.0 | 0.00 | 0.00 | 0.00 | 62 | 1020.6 |
| 20260502030820 | 49 | 203 | 1.0 | 2.0 | 0.00 | 0.00 | 0.00 | 66 | 1020.6 |
| 20260502025820 | 45 | 0.0 | 0.0 | 0.00 | 0.00 | 0.00 | 74 | 1020.5 | |
| 20260502024818 | 42 | 225 | 2.0 | 3.0 | 0.00 | 0.00 | 0.00 | 79 | 1020.4 |
| 20260502023817 | 41 | 225 | 1.0 | 2.0 | 0.00 | 0.00 | 0.00 | 81 | 1020.4 |
| 20260502022817 | 42 | 0.0 | 1.0 | 0.00 | 0.00 | 0.00 | 79 | 1020.5 | |
| 20260502021817 | 40 | 0.0 | 0.0 | 0.00 | 0.00 | 0.00 | 83 | 1020.4 | |
| 20260502020837 | 40 | 0.0 | 0.0 | 0.00 | 0.00 | 0.00 | 82 | 1020.5 | |
| 20260502015817 | 40 | 0.0 | 0.0 | 0.00 | 0.00 | 0.00 | 83 | 1020.5 | |
| 20260502014837 | 41 | 113 | 1.0 | 2.0 | 0.00 | 0.00 | 0.00 | 81 | 1020.5 |
| 20260502013840 | 41 | 0.0 | 0.0 | 0.00 | 0.00 | 0.00 | 82 | 1020.5 | |
| 20260502012817 | 40 | 0.0 | 0.0 | 0.00 | 0.00 | 0.00 | 82 | 1020.6 | |
| 20260502011817 | 40 | 0.0 | 0.0 | 0.00 | 0.00 | 0.00 | 83 | 1020.5 | |
| 20260502010817 | 40 | 0.0 | 0.0 | 0.00 | 0.00 | 0.00 | 83 | 1020.6 | |
| 20260502005817 | 40 | 0.0 | 0.0 | 0.00 | 0.00 | 0.00 | 83 | 1020.7 | |
| 20260502004817 | 40 | 0.0 | 0.0 | 0.00 | 0.00 | 0.00 | 82 | 1020.8 | |
| 20260502003820 | 41 | 0.0 | 0.0 | 0.00 | 0.00 | 0.00 | 82 | 1020.8 | |
| 20260502002820 | 40 | 0.0 | 0.0 | 0.00 | 0.00 | 0.00 | 83 | 1020.9 | |
| 20260502001817 | 41 | 0.0 | 0.0 | 0.00 | 0.00 | 0.00 | 82 | 1021.1 | |
| 20260502000820 | 41 | 0.0 | 0.0 | 0.00 | 0.00 | 0.00 | 82 | 1021.1 | |
| 20260501235817 | 41 | 0.0 | 0.0 | 0.00 | 0.00 | 0.00 | 81 | 1021.1 | |
| 20260501234817 | 41 | 0.0 | 0.0 | 0.00 | 0.00 | 0.00 | 82 | 1021.3 | |
| 20260501233817 | 42 | 0.0 | 0.0 | 0.00 | 0.00 | 0.00 | 80 | 1021.3 | |
| 20260501232837 | 42 | 0.0 | 0.0 | 0.00 | 0.00 | 0.00 | 79 | 1021.4 | |
| 20260501231840 | 42 | 0.0 | 0.0 | 0.00 | 0.00 | 0.00 | 80 | 1021.4 | |
| 20260501230840 | 42 | 0.0 | 0.0 | 0.00 | 0.00 | 0.00 | 78 | 1021.4 | |
| 20260501225817 | 42 | 0.0 | 1.0 | 0.00 | 0.00 | 0.00 | 80 | 1021.4 | |
| 20260501224817 | 43 | 0.0 | 0.0 | 0.00 | 0.00 | 0.00 | 78 | 1021.6 | |
| 20260501223817 | 44 | 0.0 | 0.0 | 0.00 | 0.00 | 0.00 | 76 | 1021.4 | |
| 20260501222817 | 43 | 0.0 | 0.0 | 0.00 | 0.00 | 0.00 | 78 | 1021.5 | |
| 20260501221817 | 44 | 0.0 | 0.0 | 0.00 | 0.00 | 0.00 | 76 | 1021.6 | |
| 20260501220817 | 45 | 0.0 | 1.0 | 0.00 | 0.00 | 0.00 | 73 | 1021.5 | |
| 20260501215817 | 45 | 0.0 | 0.0 | 0.00 | 0.00 | 0.00 | 73 | 1021.6 | |
| 20260501214817 | 45 | 0.0 | 0.0 | 0.00 | 0.00 | 0.00 | 73 | 1021.6 | |
| 20260501213817 | 47 | 0.0 | 0.0 | 0.00 | 0.00 | 0.00 | 71 | 1021.6 | |
| 20260501212817 | 46 | 0.0 | 0.0 | 0.00 | 0.00 | 0.00 | 71 | 1021.6 | |
| 20260501211817 | 47 | 0.0 | 0.0 | 0.00 | 0.00 | 0.00 | 69 | 1021.7 | |
| 20260501210816 | 48 | 0.0 | 0.0 | 0.00 | 0.00 | 0.00 | 68 | 1021.6 | |
| 20260501205820 | 49 | 0.0 | 0.0 | 0.00 | 0.00 | 0.00 | 66 | 1021.7 | |
| 20260501204820 | 49 | 0.0 | 0.0 | 0.00 | 0.00 | 0.00 | 65 | 1021.8 | |
| 20260501203816 | 49 | 0.0 | 0.0 | 0.00 | 0.00 | 0.00 | 64 | 1021.8 | |
| 20260501202817 | 52 | 0.0 | 0.0 | 0.00 | 0.00 | 0.00 | 59 | 1021.8 | |
| 20260501201820 | 52 | 68 | 1.0 | 2.0 | 0.00 | 0.00 | 0.00 | 59 | 1021.9 |
| 20260501200817 | 52 | 0.0 | 0.0 | 0.00 | 0.00 | 0.00 | 59 | 1021.8 |